Weather History for Berlin, NH

Change the Weather History Date:

Sunday, September 16, 2012

  Actual Average Record
Temperature  
Mean Temperature 47 °F -  
Max Temperature 61 °F 67 °F 78 °F (2004)
Min Temperature 33 °F 41 °F 28 °F (2001)
Degree Days  
Heating Degree Days 18    
Moisture  
Dew Point 36 °F    
Average Humidity 68    
Maximum Humidity 93    
Minimum Humidity 36    
Precipitation  
Precipitation 0.00 in - - ()
Sea Level Pressure  
Sea Level Pressure 30.05 in    
Wind  
Wind Speed 4 mph (WNW)    
Max Wind Speed 10 mph    
Max Gust Speed 21 mph    
Visibility 10 miles    
Events      
Averages and records for this station are not official NWS values.
T = Trace of Precipitation, MM = Missing Value Source: NWS Daily Summary

Daily Weather History Graph

Daily Weather History Graph

Search for Another Location

Airport:

Trip Planner

Search our weather history database for the weather conditions in past years. The results will help you decide how hot, cold, wet, or windy it might be!

Date:

Astronomy

Sep. 16, 2012 Rise Set
Actual Time 6:25 AM EDT 6:52 PM EDT
Civil Twilight 5:56 AM EDT 7:21 PM EDT
Nautical Twilight 5:21 AM EDT 7:56 PM EDT
Astronomical Twilight 4:45 AM EDT 8:31 PM EDT
Moon 7:04 AM EDT (9/16) 6:50 PM EDT (9/16)
Length of Visible Light 13h 25m
Length of Day
12h 27m
New Moon, 0% of the Moon is Illuminated
Sep 16
New Moon
Sep 22
First Quarter
Sep 29
Full
Oct 8
Last Quarter
Oct 15
New

Hourly Weather History & Observations

Time (EDT) Temp. Windchill Dew Point Humidity Pressure Visibility Wind Dir Wind Speed Gust Speed Precip Events Conditions
12:52 AM 48.0 °F - 43.0 °F 83% 30.04 in 10.0 mi Variable 3.5 mph - N/A   Partly Cloudy
1:52 AM 48.0 °F - 42.1 °F 80% 30.03 in 10.0 mi Variable 3.5 mph - N/A   Scattered Clouds
2:52 AM 46.9 °F - 39.9 °F 77% 30.03 in 10.0 mi Variable 4.6 mph - N/A   Clear
3:52 AM 45.0 °F 41.8 °F 39.0 °F 80% 30.03 in 10.0 mi WNW 5.8 mph - N/A   Clear
4:52 AM 44.1 °F 41.5 °F 37.9 °F 79% 30.04 in 10.0 mi Variable 4.6 mph - N/A   Clear
5:52 AM 41.0 °F - 36.0 °F 82% 30.06 in 10.0 mi Calm Calm - N/A   Clear
6:52 AM 37.9 °F - 34.0 °F 86% 30.07 in 10.0 mi Calm Calm - N/A   Clear
8:52 AM 48.0 °F - 34.0 °F 58% 30.09 in 10.0 mi Variable 5.8 mph - N/A   Clear
9:52 AM 51.1 °F - 34.0 °F 52% 30.09 in 10.0 mi WNW 9.2 mph 19.6 mph N/A   Clear
11:52 AM 55.9 °F - 34.0 °F 44% 30.07 in 10.0 mi Variable 5.8 mph 18.4 mph N/A   Partly Cloudy
12:52 PM 57.0 °F - 34.0 °F 42% 30.06 in 10.0 mi West 8.1 mph - N/A   Clear
1:52 PM 59.0 °F - 35.1 °F 41% 30.03 in 10.0 mi WNW 9.2 mph 18.4 mph N/A   Clear
2:52 PM 59.0 °F - 34.0 °F 39% 30.02 in 10.0 mi West 8.1 mph 20.7 mph N/A   Clear
3:52 PM 61.0 °F - 34.0 °F 36% 30.01 in 10.0 mi Variable 5.8 mph - N/A   Clear
4:52 PM 60.1 °F - 35.1 °F 39% 30.01 in 10.0 mi NW 10.4 mph - N/A   Clear
5:52 PM 57.9 °F - 37.0 °F 46% 30.01 in 10.0 mi NW 6.9 mph - N/A   Clear
6:52 PM 53.1 °F - 37.0 °F 55% 30.03 in 10.0 mi Calm Calm - N/A   Clear
7:52 PM 41.0 °F - 37.0 °F 86% 30.05 in 10.0 mi Calm Calm - N/A   Clear
8:52 PM 37.9 °F - 36.0 °F 93% 30.06 in 10.0 mi Calm Calm - N/A   Clear
9:52 PM 36.0 °F - 34.0 °F 93% 30.06 in 10.0 mi Calm Calm - N/A   Clear
10:23 PM 33.8 °F - 32.0 °F 93% 30.04 in 10.0 mi Calm Calm - N/A   Scattered Clouds
10:52 PM 34.0 °F - 32.0 °F 92% 30.08 in 10.0 mi Calm Calm - N/A   Clear
11:52 PM 34.0 °F - 30.9 °F 89% 30.08 in 10.0 mi Calm Calm - N/A   Partly Cloudy